| DS18B20 | SHTC3 | PZEM-004T | WiFi | ||||||||
|---|---|---|---|---|---|---|---|---|---|---|---|
| ID | Date d/m/Y & Time | data1 สูง | data2 ต่ำ | data3 นอก | temp pcb | hum pcb | Volt | Amp | Watt | rssi | Time |
| 15927 | 25/08/2026 17:12:30 | 30.0  | 29.9  | 27.9  | 31.2  | 65.7  | 234.1  | 0.04  | 4.6  | -83  | 17:12 |
| 15926 | 25/08/2026 17:07:43 | 30.0  | 29.9  | 28.0  | 31.1  | 65.7  | 233.8  | 0.03  | 4.6  | -90  | 17:07 |
| 15925 | 25/08/2026 17:02:51 | 30.1  | 29.9  | 27.9  | 31.1  | 65.7  | 234.1  | 0.04  | 4.6  | -83  | 17:02 |
| 15924 | 25/08/2026 16:58:06 | 30.1  | 29.9  | 28.2  | 31.2  | 65.8  | 234.3  | 0.04  | 4.6  | -86  | 16:58 |
| 15923 | 25/08/2026 16:53:23 | 30.1  | 29.9  | 28.2  | 31.4  | 65.8  | 233.4  | 0.04  | 4.6  | -83  | 16:53 |
| 15922 | 25/08/2026 16:48:38 | 30.1  | 30.0  | 28.2  | 31.2  | 65.7  | 234.0  | 0.04  | 4.6  | -79  | 16:48 |
| 15921 | 25/08/2026 16:43:54 | 30.1  | 30.0  | 28.1  | 31.3  | 65.7  | 233.6  | 0.04  | 4.6  | -81  | 16:43 |
| 15920 | 25/08/2026 16:39:13 | 30.1  | 30.0  | 28.2  | 31.2  | 65.7  | 233.4  | 0.04  | 4.6  | -82  | 16:39 |
| 15919 | 25/08/2026 16:34:16 | 30.1  | 30.0  | 28.2  | 31.4  | 65.7  | 234.4  | 0.04  | 4.6  | -79  | 16:34 |
| 15918 | 25/08/2026 16:29:33 | 30.1  | 30.0  | 28.2  | 31.4  | 65.7  | 234.7  | 0.04  | 4.6  | -81  | 16:29 |
| 15917 | 25/08/2026 16:24:49 | 30.1  | 30.0  | 28.2  | 31.4  | 65.7  | 234.7  | 0.04  | 4.6  | -79  | 16:24 |
| 15916 | 25/08/2026 16:20:05 | 30.1  | 30.0  | 28.1  | 31.4  | 65.7  | 235.2  | 0.04  | 4.6  | -79  | 16:20 |
| 15915 | 25/08/2026 16:15:19 | 30.1  | 30.0  | 28.0  | 31.4  | 65.7  | 234.7  | 0.04  | 4.6  | -81  | 16:15 |
| 15914 | 25/08/2026 16:10:33 | 30.1  | 30.0  | 28.0  | 31.4  | 65.8  | 235.3  | 0.04  | 4.6  | -80  | 16:10 |
| 15913 | 25/08/2026 16:05:50 | 30.1  | 30.0  | 28.0  | 31.5  | 65.8  | 234.7  | 0.04  | 4.6  | -81  | 16:05 |
| 15912 | 25/08/2026 16:01:05 | 30.1  | 30.0  | 28.2  | 31.3  | 65.8  | 234.3  | 0.04  | 4.6  | -82  | 16:01 |
| 15911 | 25/08/2026 15:56:21 | 30.2  | 30.0  | 28.0  | 31.4  | 65.8  | 234.5  | 0.04  | 4.6  | -81  | 15:56 |
| 15910 | 25/08/2026 15:51:36 | 30.2  | 30.0  | 27.9  | 31.4  | 65.8  | 233.1  | 0.04  | 4.6  | -83  | 15:51 |
| 15909 | 25/08/2026 15:46:52 | 30.2  | 30.1  | 27.8  | 31.5  | 65.9  | 234.8  | 0.04  | 4.6  | -88  | 15:46 |
| 15908 | 25/08/2026 15:42:09 | 30.2  | 30.1  | 27.7  | 31.5  | 65.8  | 234.5  | 0.04  | 4.6  | -82  | 15:42 |
| 15907 | 25/08/2026 15:37:25 | 30.2  | 30.1  | 27.7  | 31.4  | 65.8  | 234.6  | 0.04  | 4.6  | -78  | 15:37 |
| 15906 | 25/08/2026 15:32:42 | 30.2  | 30.1  | 27.9  | 31.4  | 65.8  | 234.5  | 0.04  | 4.6  | -83  | 15:32 |
| 15905 | 25/08/2026 15:27:57 | 30.2  | 30.1  | 28.0  | 31.4  | 65.9  | 232.8  | 0.04  | 4.6  | -81  | 15:27 |
| 15904 | 25/08/2026 15:23:07 | 30.2  | 30.1  | 27.9  | 31.5  | 66.0  | 234.8  | 0.04  | 4.6  | -85  | 15:23 |